Home > Weather > Cork > Past weeks

Flag for Ireland Weather for the Past 2 Weeks in Cork, Ireland

Now
40 °F

Light rain. Low clouds.


Feels Like: 37 °F
Forecast: 39 / 44 °F
Wind: 3 mph from North

Location: Cork Airport

Current Time: Feb 13, 2016 at 7:47:06 AM

Latest Report: Feb 13, 2016 at 7:00 AM


Visibility: 13 mi

Pressure: 29.03 "Hg

Humidity: 100%

Dew point: 40 °F

Location of CorkLocation

Historic Weather in Cork — Graph

°F

Cork Temperature Yesterday

Maximum temperature yesterday: 43 °F (at 4:00 PM)
Minimum temperature yesterday: 38 °F (at 9:00 PM)
Average temperature yesterday: 40 °F

High & Low Weather Summary for the Past Weeks

 TemperatureHumidityPressure
High54 °F (Jan 31, 11:00 AM)100% (Jan 31, 5:00 AM)30.43 "Hg (Jan 31, 5:00 AM)
Low32 °F (Feb 11, 6:00 AM)61% (Feb 9, 5:00 PM)28.79 "Hg (Feb 8, 4:00 AM)
Average43 °F89%29.61 "Hg
* Reported Jan 29 6:00 AM — Feb 13 6:00 AM, Cork, Weather by CustomWeather, © 2016

Note: Actual official high and low records may vary slightly from our data, if they occured in-between our weather recording intervals... More about our weather records

Advertising

Cork Weather History for the Previous 24 Hours

 ConditionsComfort  
Time TempWeatherWind HumidityBarometerVisibility
6:00 AM
Sat, Feb 13
40 °FLight rain. Low clouds.5 mph100%29.03 "Hg12 mi
5:00 AM39 °FLight rain. Overcast.3 mph100%29.00 "Hg12 mi
4:00 AM40 °FLight rain. Low clouds.3 mph100%29.00 "Hg12 mi
12:00 AM42 °FLow clouds.3 mph100%29.06 "Hg11 mi
10:00 PM
Fri, Feb 12
40 °FFog.3 mph100%29.15 "Hg1 mi
9:00 PM38 °FFog.2 mph100%29.18 "Hg1 mi
8:00 PM40 °FFog.No wind100%29.21 "Hg9 mi
7:00 PM39 °FFog.2 mph99%29.23 "Hg0 mi
6:00 PM42 °FFog.2 mph99%29.26 "Hg4 mi
5:00 PM42 °FFog.3 mph98%29.26 "Hg4 mi
4:00 PM43 °FLow clouds.3 mph85%29.26 "Hg4 mi
3:00 PM42 °FDrizzle. Low clouds.2 mph100%29.26 "Hg1 mi
2:00 PM42 °FFog.3 mph99%29.26 "Hg2 mi
1:00 PM42 °FFog.5 mph100%29.26 "Hg1 mi
12:00 PM41 °FFog.5 mph99%29.26 "Hg4 mi
11:00 AM40 °FFog.5 mph100%29.26 "Hg4 mi
10:00 AM40 °FDrizzle. Low clouds.5 mph100%29.23 "Hg1 mi
9:00 AM40 °FLow clouds.3 mph100%29.23 "Hg11 mi
8:00 AM40 °FDrizzle. Low clouds.5 mph100%29.23 "Hg2 mi
7:00 AM39 °FLight rain. Low clouds.5 mph100%29.21 "Hg1 mi
Weather by CustomWeather, © 2016

See weather overviewHow to use our weather pages